User: anonymous
Location: Unspecified
(0.0000°N, 0.0000°E)
Time: 10:58:26
(UTC+02:00)
Language:

Cosmos 2219 Rocket - Orbit

View from above orbital plane
View from above orbital plane
View from above satellite
View from above satellite

Ground track
Ground track

The orbit data is extracted from the following two-line orbital elements,

1 22220U 92076B   14205.11872072 -.00000131  00000-0 -42021-4 0  3592
2 22220 071.0020 128.3691 0010625 083.6390 011.0311 14.16319063120816
Epoch (UTC): 24 July 2014 02:50:57
Eccentricity: 0.0010625
inclination: 71.0020°
perigee height: 830 km
apogee height: 845 km
right ascension of ascending node: 128.3691°
argument of perigee: 83.6390°
revolutions per day: 14.16319063
mean anomaly at epoch: 11.0311°
orbit number at epoch: 12081

The dashed part of the orbit path shows where the satellite is in the earth's shadow,  

DLR